| time (UTC) | temp C | wind direction | speed KPH | gust KPH | rain 1hr cm | rain 24hr cm | rain mn cm | humidity % | barometer mb |
| 20260504201504 | 21 | 128 | 6.4 | 12.9 | 0.00 | 0.00 | 0.00 | 40 | 1014.1 |
| 20260504201003 | 22 | 160 | 6.4 | 17.7 | 0.00 | 0.00 | 0.00 | 39 | 1014.1 |
| 20260504200503 | 22 | 285 | 6.4 | 17.7 | 0.00 | 0.00 | 0.00 | 43 | 1014.2 |
| 20260504200024 | 22 | 290 | 8.0 | 14.5 | 0.00 | 0.00 | 0.00 | 41 | 1014.2 |
| 20260504195503 | 22 | 279 | 6.4 | 14.5 | 0.00 | 0.00 | 0.00 | 41 | 1014.3 |
| 20260504195003 | 21 | 266 | 6.4 | 14.5 | 0.00 | 0.00 | 0.00 | 43 | 1014.4 |
| 20260504194503 | 22 | 286 | 6.4 | 14.5 | 0.00 | 0.00 | 0.00 | 43 | 1014.5 |
| 20260504194003 | 21 | 299 | 6.4 | 17.7 | 0.00 | 0.00 | 0.00 | 47 | 1014.5 |
| 20260504193503 | 21 | 305 | 6.4 | 17.7 | 0.00 | 0.00 | 0.00 | 45 | 1014.5 |
| 20260504193003 | 21 | 264 | 4.8 | 16.1 | 0.00 | 0.00 | 0.00 | 47 | 1014.5 |
| 20260504192503 | 21 | 284 | 4.8 | 16.1 | 0.00 | 0.00 | 0.00 | 45 | 1014.7 |
| 20260504192003 | 20 | 315 | 6.4 | 14.5 | 0.00 | 0.00 | 0.00 | 47 | 1014.8 |
| 20260504191503 | 20 | 299 | 8.0 | 20.9 | 0.00 | 0.00 | 0.00 | 45 | 1014.9 |
| 20260504191003 | 20 | 285 | 8.0 | 20.9 | 0.00 | 0.00 | 0.00 | 47 | 1015.0 |
| 20260504190504 | 20 | 294 | 9.7 | 24.1 | 0.00 | 0.00 | 0.00 | 47 | 1015.1 |
| 20260504190024 | 20 | 299 | 8.0 | 24.1 | 0.00 | 0.00 | 0.00 | 47 | 1015.2 |
| 20260504185503 | 20 | 294 | 6.4 | 17.7 | 0.00 | 0.00 | 0.00 | 49 | 1015.2 |
| 20260504185003 | 20 | 290 | 8.0 | 19.3 | 0.00 | 0.00 | 0.00 | 48 | 1015.3 |
| 20260504184503 | 20 | 286 | 9.7 | 22.5 | 0.00 | 0.00 | 0.00 | 46 | 1015.3 |
| 20260504184024 | 20 | 283 | 11.3 | 22.5 | 0.00 | 0.00 | 0.00 | 47 | 1015.4 |
| 20260504183524 | 20 | 269 | 8.0 | 22.5 | 0.00 | 0.00 | 0.00 | 49 | 1015.4 |
| 20260504183003 | 19 | 265 | 6.4 | 19.3 | 0.00 | 0.00 | 0.00 | 48 | 1015.5 |
| 20260504182503 | 18 | 271 | 6.4 | 19.3 | 0.00 | 0.00 | 0.00 | 50 | 1015.4 |
| 20260504182004 | 18 | 281 | 8.0 | 19.3 | 0.00 | 0.00 | 0.00 | 49 | 1015.6 |
| 20260504181503 | 18 | 293 | 11.3 | 24.1 | 0.00 | 0.00 | 0.00 | 51 | 1015.6 |
| 20260504181045 | 18 | 284 | 11.3 | 24.1 | 0.00 | 0.00 | 0.00 | 49 | 1015.6 |
| 20260504180503 | 18 | 261 | 8.0 | 22.5 | 0.00 | 0.00 | 0.00 | 50 | 1015.7 |
| 20260504180003 | 18 | 255 | 6.4 | 22.5 | 0.00 | 0.00 | 0.00 | 48 | 1015.7 |
| 20260504175503 | 18 | 278 | 6.4 | 17.7 | 0.00 | 0.00 | 0.00 | 49 | 1015.7 |
| 20260504175003 | 18 | 271 | 6.4 | 17.7 | 0.00 | 0.00 | 0.00 | 49 | 1015.6 |
| 20260504174503 | 18 | 282 | 8.0 | 19.3 | 0.00 | 0.00 | 0.00 | 47 | 1015.8 |
| 20260504174003 | 18 | 283 | 9.7 | 22.5 | 0.00 | 0.00 | 0.00 | 51 | 1015.8 |
| 20260504173503 | 18 | 268 | 11.3 | 22.5 | 0.00 | 0.00 | 0.00 | 47 | 1015.8 |
| 20260504173003 | 18 | 280 | 11.3 | 22.5 | 0.00 | 0.00 | 0.00 | 46 | 1015.9 |
| 20260504172524 | 18 | 285 | 11.3 | 22.5 | 0.00 | 0.00 | 0.00 | 46 | 1015.8 |
| 20260504172003 | 18 | 284 | 9.7 | 22.5 | 0.00 | 0.00 | 0.00 | 49 | 1015.8 |
| 20260504171503 | 18 | 285 | 8.0 | 20.9 | 0.00 | 0.00 | 0.00 | 46 | 1015.8 |
| 20260504171003 | 18 | 290 | 6.4 | 14.5 | 0.00 | 0.00 | 0.00 | 45 | 1015.7 |
| 20260504170503 | 18 | 313 | 6.4 | 17.7 | 0.00 | 0.00 | 0.00 | 43 | 1015.8 |
| 20260504151003 | 13 | 277 | 8.0 | 20.9 | 0.00 | 0.00 | 0.00 | 59 | 1017.3 |
| 20260504150503 | 12 | 299 | 4.8 | 16.1 | 0.00 | 0.00 | 0.00 | 58 | 1017.8 |
| 20260504141003 | 13 | 281 | 9.7 | 24.1 | 0.00 | 0.00 | 0.00 | 51 | 1017.3 |
| 20260504140503 | 13 | 274 | 11.3 | 25.7 | 0.00 | 0.00 | 0.00 | 51 | 1017.2 |
| 20260504130503 | 12 | 288 | 4.8 | 14.5 | 0.00 | 0.00 | 0.00 | 52 | 1016.4 |
| 20260504110503 | 7 | 198 | 3.2 | 12.9 | 0.00 | 0.00 | 0.00 | 70 | 1015.9 |
| 20260504100503 | 8 | 326 | 1.6 | 12.9 | 0.00 | 0.00 | 0.00 | 63 | 1015.7 |
| 20260504082003 | 6 | 303 | 4.8 | 17.7 | 0.00 | 0.00 | 0.00 | 70 | 1015.7 |
| 20260504081503 | 6 | 320 | 3.2 | 17.7 | 0.00 | 0.00 | 0.00 | 71 | 1015.7 |
| 20260504081003 | 5 | 13 | 1.6 | 9.7 | 0.00 | 0.00 | 0.00 | 70 | 1015.7 |
| 20260504080503 | 5 | 65 | 1.6 | 9.7 | 0.00 | 0.00 | 0.00 | 70 | 1015.7 |
| 20260504050503 | 5 | 167 | 3.2 | 8.0 | 0.00 | 0.00 | 0.00 | 61 | 1016.3 |
| 20260504050003 | 5 | 159 | 1.6 | 6.4 | 0.00 | 0.00 | 0.00 | 62 | 1016.4 |
| 20260504045503 | 5 | 153 | 1.6 | 3.2 | 0.00 | 0.00 | 0.00 | 62 | 1016.4 |
| 20260504045003 | 5 | 174 | 3.2 | 9.7 | 0.00 | 0.00 | 0.00 | 63 | 1016.4 |
| 20260504044504 | 5 | 232 | 3.2 | 9.7 | 0.00 | 0.00 | 0.00 | 63 | 1016.3 |
| 20260504044003 | 5 | 281 | 1.6 | 4.8 | 0.00 | 0.00 | 0.00 | 65 | 1016.3 |
| 20260504043503 | 5 | 281 | 1.6 | 3.2 | 0.00 | 0.00 | 0.00 | 66 | 1016.3 |
| 20260504043003 | 5 | 281 | 0.0 | 3.2 | 0.00 | 0.00 | 0.00 | 66 | 1016.3 |
| 20260504042524 | 5 | 281 | 0.0 | 1.6 | 0.00 | 0.00 | 0.00 | 65 | 1016.3 |
| 20260504042003 | 5 | 281 | 0.0 | 3.2 | 0.00 | 0.00 | 0.00 | 65 | 1016.4 |
| 20260504041524 | 5 | 282 | 1.6 | 6.4 | 0.00 | 0.00 | 0.00 | 65 | 1016.3 |
| 20260504041003 | 5 | 282 | 0.0 | 6.4 | 0.00 | 0.00 | 0.00 | 65 | 1016.3 |
| 20260504040503 | 5 | 119 | 0.0 | 3.2 | 0.00 | 0.00 | 0.00 | 64 | 1016.2 |
| 20260504040003 | 5 | 124 | 1.6 | 3.2 | 0.00 | 0.00 | 0.00 | 63 | 1016.1 |
| 20260504035545 | 5 | 123 | 1.6 | 3.2 | 0.00 | 0.00 | 0.00 | 63 | 1016.1 |
| 20260504035003 | 5 | 121 | 0.0 | 3.2 | 0.00 | 0.00 | 0.00 | 62 | 1016.1 |
| 20260504034503 | 5 | 121 | 1.6 | 4.8 | 0.00 | 0.00 | 0.00 | 59 | 1016.2 |
| 20260504034003 | 5 | 142 | 1.6 | 4.8 | 0.00 | 0.00 | 0.00 | 58 | 1016.1 |
| 20260504033503 | 5 | 171 | 0.0 | 4.8 | 0.00 | 0.00 | 0.00 | 57 | 1016.2 |
| 20260504033003 | 5 | 201 | 0.0 | 1.6 | 0.00 | 0.00 | 0.00 | 57 | 1016.1 |
| 20260504032545 | 6 | 201 | 0.0 | 1.6 | 0.00 | 0.00 | 0.00 | 57 | 1016.1 |
| 20260504032003 | 6 | 201 | 0.0 | 1.6 | 0.00 | 0.00 | 0.00 | 58 | 1016.1 |
| 20260504031503 | 6 | 201 | 0.0 | 1.6 | 0.00 | 0.00 | 0.00 | 57 | 1016.0 |
| 20260504031003 | 6 | 196 | 1.6 | 3.2 | 0.00 | 0.00 | 0.00 | 56 | 1016.0 |
| 20260504030524 | 6 | 160 | 1.6 | 3.2 | 0.00 | 0.00 | 0.00 | 56 | 1016.0 |
| 20260504030003 | 6 | 134 | 1.6 | 3.2 | 0.00 | 0.00 | 0.00 | 56 | 1016.1 |
| 20260504025524 | 6 | 151 | 1.6 | 8.0 | 0.00 | 0.00 | 0.00 | 56 | 1016.2 |
| 20260504025003 | 6 | 163 | 3.2 | 9.7 | 0.00 | 0.00 | 0.00 | 53 | 1016.1 |
| 20260504024503 | 6 | 158 | 3.2 | 9.7 | 0.00 | 0.00 | 0.00 | 55 | 1016.1 |
| 20260504024003 | 6 | 144 | 3.2 | 4.8 | 0.00 | 0.00 | 0.00 | 56 | 1016.3 |
| 20260504023503 | 6 | 145 | 1.6 | 4.8 | 0.00 | 0.00 | 0.00 | 54 | 1016.3 |
| 20260504023003 | 6 | 148 | 0.0 | 1.6 | 0.00 | 0.00 | 0.00 | 53 | 1016.4 |
| 20260504022524 | 6 | 148 | 0.0 | 3.2 | 0.00 | 0.00 | 0.00 | 54 | 1016.4 |
| 20260504022003 | 6 | 144 | 1.6 | 4.8 | 0.00 | 0.00 | 0.00 | 55 | 1016.4 |
| 20260504021503 | 6 | 165 | 1.6 | 4.8 | 0.00 | 0.00 | 0.00 | 53 | 1016.3 |
| 20260504021003 | 6 | 183 | 3.2 | 4.8 | 0.00 | 0.00 | 0.00 | 52 | 1016.3 |
| 20260504020503 | 6 | 191 | 1.6 | 4.8 | 0.00 | 0.00 | 0.00 | 52 | 1016.2 |
| 20260504020003 | 6 | 194 | 1.6 | 4.8 | 0.00 | 0.00 | 0.00 | 53 | 1016.2 |
| 20260504015524 | 6 | 194 | 0.0 | 1.6 | 0.00 | 0.00 | 0.00 | 51 | 1016.0 |
| 20260504015003 | 6 | 185 | 1.6 | 4.8 | 0.00 | 0.00 | 0.00 | 51 | 1015.9 |
| 20260504014503 | 6 | 164 | 1.6 | 6.4 | 0.00 | 0.00 | 0.00 | 51 | 1015.8 |
| 20260504014003 | 6 | 141 | 1.6 | 6.4 | 0.00 | 0.00 | 0.00 | 53 | 1015.7 |
| 20260504013503 | 7 | 130 | 1.6 | 4.8 | 0.00 | 0.00 | 0.00 | 50 | 1015.8 |
| 20260504013003 | 7 | 130 | 0.0 | 3.2 | 0.00 | 0.00 | 0.00 | 52 | 1015.9 |
| 20260504012503 | 7 | 130 | 1.6 | 3.2 | 0.00 | 0.00 | 0.00 | 53 | 1015.9 |
| 20260504012003 | 7 | 130 | 1.6 | 3.2 | 0.00 | 0.00 | 0.00 | 51 | 1015.9 |
| 20260504011524 | 7 | 130 | 0.0 | 3.2 | 0.00 | 0.00 | 0.00 | 51 | 1015.8 |
| 20260504011003 | 7 | 130 | 0.0 | 3.2 | 0.00 | 0.00 | 0.00 | 52 | 1015.6 |
| 20260504010503 | 8 | 130 | 0.0 | 3.2 | 0.00 | 0.00 | 0.00 | 51 | 1015.6 |
| 20260504010003 | 8 | 143 | 1.6 | 6.4 | 0.00 | 0.00 | 0.00 | 51 | 1015.6 |
| 20260504005503 | 8 | 151 | 3.2 | 6.4 | 0.00 | 0.00 | 0.00 | 48 | 1015.5 |
| 20260504005004 | 8 | 159 | 1.6 | 6.4 | 0.00 | 0.00 | 0.00 | 48 | 1015.5 |
| 20260504004503 | 9 | 156 | 1.6 | 6.4 | 0.00 | 0.00 | 0.00 | 46 | 1015.4 |
| 20260504004004 | 9 | 190 | 0.0 | 3.2 | 0.00 | 0.00 | 0.00 | 45 | 1015.5 |
| 20260504003503 | 10 | 190 | 1.6 | 3.2 | 0.00 | 0.00 | 0.00 | 44 | 1015.5 |
| 20260504003003 | 10 | 190 | 1.6 | 3.2 | 0.00 | 0.00 | 0.00 | 45 | 1015.5 |
| 20260504002545 | 10 | 208 | 1.6 | 8.0 | 0.00 | 0.00 | 0.00 | 44 | 1015.5 |
| 20260504002003 | 10 | 244 | 3.2 | 8.0 | 0.00 | 0.00 | 0.00 | 39 | 1015.4 |
| 20260504001503 | 10 | 212 | 3.2 | 6.4 | 0.00 | 0.00 | 0.00 | 39 | 1015.3 |
| 20260504001003 | 11 | 221 | 3.2 | 11.3 | 0.00 | 0.00 | 0.00 | 38 | 1015.3 |
| 20260504000524 | 11 | 249 | 4.8 | 12.9 | 0.00 | 0.00 | 0.00 | 35 | 1015.3 |
| 20260504000003 | 11 | 268 | 3.2 | 12.9 | 0.00 | 0.00 | 0.00 | 36 | 1015.3 |
| 20260503235503 | 11 | 281 | 4.8 | 17.7 | 0.00 | 0.00 | 0.00 | 35 | 1015.2 |
| 20260503235003 | 11 | 279 | 6.4 | 17.7 | 0.00 | 0.00 | 0.00 | 33 | 1015.3 |
| 20260503234503 | 12 | 281 | 6.4 | 17.7 | 0.00 | 0.00 | 0.00 | 33 | 1015.2 |
| 20260503234003 | 12 | 285 | 6.4 | 17.7 | 0.00 | 0.00 | 0.00 | 33 | 1015.2 |
| 20260503233524 | 12 | 290 | 6.4 | 19.3 | 0.00 | 0.00 | 0.00 | 32 | 1015.1 |
| 20260503233003 | 12 | 282 | 6.4 | 19.3 | 0.00 | 0.00 | 0.00 | 32 | 1015.1 |
| 20260503232524 | 12 | 279 | 6.4 | 14.5 | 0.00 | 0.00 | 0.00 | 32 | 1015.1 |
| 20260503232003 | 13 | 288 | 8.0 | 22.5 | 0.00 | 0.00 | 0.00 | 30 | 1015.0 |
| 20260503231503 | 13 | 291 | 9.7 | 22.5 | 0.00 | 0.00 | 0.00 | 30 | 1015.0 |
| 20260503231024 | 13 | 283 | 9.7 | 20.9 | 0.00 | 0.00 | 0.00 | 30 | 1015.0 |
| 20260503230503 | 13 | 276 | 6.4 | 16.1 | 0.00 | 0.00 | 0.00 | 29 | 1015.1 |
| 20260503230003 | 13 | 284 | 8.0 | 20.9 | 0.00 | 0.00 | 0.00 | 29 | 1015.1 |
| 20260503225524 | 13 | 285 | 8.0 | 20.9 | 0.00 | 0.00 | 0.00 | 30 | 1015.1 |
| 20260503225003 | 13 | 279 | 6.4 | 17.7 | 0.00 | 0.00 | 0.00 | 28 | 1015.2 |
| 20260503224503 | 13 | 269 | 8.0 | 17.7 | 0.00 | 0.00 | 0.00 | 27 | 1015.1 |
| 20260503224003 | 13 | 277 | 9.7 | 24.1 | 0.00 | 0.00 | 0.00 | 26 | 1015.2 |
| 20260503223503 | 13 | 290 | 11.3 | 25.7 | 0.00 | 0.00 | 0.00 | 27 | 1015.2 |
| 20260503223003 | 13 | 286 | 9.7 | 25.7 | 0.00 | 0.00 | 0.00 | 26 | 1015.3 |
| 20260503222503 | 13 | 279 | 11.3 | 25.7 | 0.00 | 0.00 | 0.00 | 27 | 1015.1 |
| 20260503222003 | 13 | 286 | 9.7 | 25.7 | 0.00 | 0.00 | 0.00 | 27 | 1015.1 |
| 20260503221503 | 13 | 290 | 11.3 | 25.7 | 0.00 | 0.00 | 0.00 | 28 | 1015.3 |
| 20260503221003 | 14 | 293 | 14.5 | 25.7 | 0.00 | 0.00 | 0.00 | 28 | 1015.2 |
| 20260503220524 | 14 | 295 | 12.9 | 25.7 | 0.00 | 0.00 | 0.00 | 26 | 1015.3 |
| 20260503220024 | 14 | 292 | 9.7 | 22.5 | 0.00 | 0.00 | 0.00 | 28 | 1015.3 |
| 20260503215503 | 15 | 290 | 8.0 | 17.7 | 0.00 | 0.00 | 0.00 | 28 | 1015.3 |
| 20260503215003 | 14 | 298 | 9.7 | 24.1 | 0.00 | 0.00 | 0.00 | 27 | 1015.3 |
| 20260503214503 | 14 | 298 | 9.7 | 24.1 | 0.00 | 0.00 | 0.00 | 27 | 1015.3 |
| 20260503214003 | 14 | 305 | 9.7 | 22.5 | 0.00 | 0.00 | 0.00 | 26 | 1015.3 |
| 20260503213503 | 14 | 315 | 9.7 | 22.5 | 0.00 | 0.00 | 0.00 | 27 | 1015.4 |
| 20260503213003 | 14 | 304 | 9.7 | 22.5 | 0.00 | 0.00 | 0.00 | 28 | 1015.5 |
| 20260503212503 | 14 | 298 | 9.7 | 22.5 | 0.00 | 0.00 | 0.00 | 27 | 1015.4 |
| 20260503212003 | 14 | 302 | 11.3 | 22.5 | 0.00 | 0.00 | 0.00 | 28 | 1015.5 |
| 20260503211503 | 14 | 299 | 11.3 | 22.5 | 0.00 | 0.00 | 0.00 | 28 | 1015.6 |
| 20260503211003 | 14 | 299 | 11.3 | 22.5 | 0.00 | 0.00 | 0.00 | 27 | 1015.7 |
| 20260503210524 | 14 | 303 | 11.3 | 20.9 | 0.00 | 0.00 | 0.00 | 28 | 1015.7 |
| 20260503210004 | 14 | 296 | 12.9 | 25.7 | 0.00 | 0.00 | 0.00 | 27 | 1015.8 |
| 20260503205503 | 14 | 288 | 11.3 | 25.7 | 0.00 | 0.00 | 0.00 | 27 | 1015.7 |
| 20260503205003 | 14 | 276 | 9.7 | 24.1 | 0.00 | 0.00 | 0.00 | 26 | 1015.8 |
| 20260503204503 | 14 | 271 | 9.7 | 22.5 | 0.00 | 0.00 | 0.00 | 27 | 1015.9 |
| 20260503204003 | 14 | 279 | 9.7 | 24.1 | 0.00 | 0.00 | 0.00 | 26 | 1016.0 |
| 20260503203503 | 14 | 271 | 9.7 | 24.1 | 0.00 | 0.00 | 0.00 | 25 | 1016.0 |
| 20260503202503 | 15 | 294 | 11.3 | 27.4 | 0.00 | 0.00 | 0.00 | 28 | 1016.0 |
| 20260503202003 | 15 | 315 | 9.7 | 27.4 | 0.00 | 0.00 | 0.00 | 31 | 1015.9 |